Vorticity
3 6 6 5 6 7 8 9 8 8 9 8 9 15 14 7 3 -1 0 4 3 1 3 11 30 36 18 6 4 2 13 29 24 13 13 16 19 16 7 5 7 7 9 9 7 10 11 9 10 10 7 8 9 10 13 14 13 13 11 8 9 7 6 9 10 10 11 10 10 11 9 8 8 8 8 8 9 9 8 6 6 5 4 4 5 5 5
1 5 3 0 -0 2 6 9 10 10 11 10 8 10 14 16 15 8 12 19 16 21 23 14 21 20 -7 -5 23 23 15 21 21 15 13 14 17 15 9 7 5 6 10 8 8 10 9 10 11 9 8 9 8 8 12 12 12 13 13 12 11 9 7 7 7 9 9 8 8 8 8 7 6 8 9 7 6 8 9 7 5 4 3 5 4 3 5
-1 1 1 2 3 5 5 4 6 7 10 13 8 2 3 8 12 10 17 30 24 12 2 -3 15 19 -9 -2 28 23 16 24 20 11 12 15 16 14 11 8 5 6 7 7 9 9 8 11 10 9 10 9 7 8 9 10 12 12 13 15 13 11 10 8 6 8 9 8 8 8 8 8 7 7 8 8 7 6 8 8 5 4 4 4 4 3 4
3 1 1 4 8 15 17 11 7 4 7 15 15 10 2 -2 4 4 11 29 25 7 9 21 32 27 7 10 25 22 22 25 14 8 12 16 16 12 11 12 8 6 6 7 8 8 9 11 10 10 10 8 8 8 6 9 12 10 11 12 12 11 11 10 9 8 10 12 12 13 12 9 9 9 8 9 8 6 7 7 5 5 5 4 4 4 4
7 5 7 9 7 9 16 20 17 9 8 12 15 21 15 -1 0 4 8 21 20 15 28 30 18 16 20 21 20 19 20 17 13 14 11 11 13 11 11 12 10 9 8 7 8 8 9 10 11 11 10 9 9 8 7 8 10 11 11 9 10 11 10 9 10 8 8 9 10 12 14 11 11 12 10 10 9 8 7 6 5 6 6 4 5 5 4
7 6 10 13 8 4 7 14 18 15 14 12 10 25 30 10 0 3 -1 3 17 28 25 9 2 15 22 18 13 11 12 13 14 15 12 11 11 9 10 13 12 11 9 7 9 9 9 11 12 11 9 10 9 8 8 7 7 10 10 8 9 11 11 10 9 9 8 7 7 9 10 11 11 11 12 10 9 9 8 7 6 7 6 6 6 7 7
5 5 8 10 9 8 5 6 10 10 13 12 8 21 36 26 13 10 -4 -9 17 40 25 5 10 17 11 7 6 3 8 13 11 11 14 12 7 6 10 11 11 12 10 9 9 9 10 11 13 13 11 10 10 9 9 8 7 9 9 9 10 9 11 11 9 10 10 8 8 7 8 10 10 10 12 11 10 9 9 8 7 6 6 6 6 7 8
5 3 3 6 7 8 7 8 12 9 6 10 10 15 28 26 17 15 7 -6 6 31 30 16 13 12 6 3 2 2 4 6 8 13 14 12 11 14 13 11 12 12 11 11 10 8 10 12 14 15 12 12 12 10 10 9 9 10 8 8 10 10 11 10 9 9 9 8 9 7 7 9 9 9 10 10 11 10 8 8 7 7 7 6 6 6 7
6 4 2 5 7 7 5 4 10 11 4 2 3 7 17 17 8 14 17 5 2 19 32 24 12 8 7 3 6 7 -4 -1 15 20 17 14 8 11 19 17 13 13 12 11 11 11 12 13 15 14 12 15 16 12 12 12 10 10 10 8 9 10 11 11 10 8 8 9 9 7 7 8 8 8 9 9 10 10 9 9 7 7 8 7 7 7 6
7 8 9 9 9 9 5 1 5 4 -4 -5 -0 8 20 21 11 7 6 3 8 16 25 25 13 7 3 -0 10 8 -11 0 22 16 13 13 -4 1 27 26 14 15 16 14 15 16 15 14 15 14 10 12 14 12 12 12 11 12 12 11 10 9 11 12 11 9 9 9 9 9 8 7 6 7 8 9 10 9 10 10 8 7 7 7 7 8 8
9 11 15 15 13 11 6 4 7 2 0 9 10 9 18 23 20 9 -3 2 14 12 16 20 11 11 13 3 9 15 1 6 17 6 8 14 -1 3 23 21 18 21 16 14 17 17 16 15 14 14 11 9 11 12 11 10 11 11 10 12 12 11 12 12 11 10 11 10 11 10 8 7 8 8 8 9 10 10 9 9 9 9 9 8 8 9 9
9 7 8 10 14 16 10 5 5 1 4 10 3 0 11 22 30 25 8 9 20 17 19 18 5 16 26 2 -1 22 19 7 7 5 9 14 10 11 10 8 22 27 16 16 19 13 14 15 13 13 13 10 9 12 12 10 10 11 10 9 10 11 12 13 12 11 10 11 11 9 7 9 10 9 8 7 9 10 10 9 9 9 9 9 8 8 9
5 6 5 6 12 18 15 9 7 3 1 -1 -3 4 12 13 27 35 17 8 16 19 19 11 -1 12 22 -0 -4 21 23 8 5 10 13 12 14 16 8 6 20 25 20 22 22 16 16 17 17 16 16 15 11 10 13 13 10 11 11 10 10 11 12 13 14 12 9 8 9 6 7 11 11 9 9 8 8 9 10 10 10 9 8 8 7 8 8
1 5 7 6 10 17 17 12 9 7 6 -0 -1 9 12 6 16 30 21 7 10 15 13 8 4 10 12 5 6 16 15 9 8 10 13 13 13 14 12 9 11 14 14 14 15 15 11 9 13 11 8 13 14 9 11 12 9 10 12 11 12 12 12 13 14 14 12 10 10 9 9 10 11 11 10 8 8 8 8 8 10 10 10 9 7 7 6
-0 2 7 7 8 12 17 16 13 12 13 8 2 6 13 12 12 23 25 12 5 10 11 9 11 13 8 5 9 12 11 11 12 12 12 12 12 13 11 7 7 10 11 11 14 15 8 6 10 7 4 8 9 7 8 9 9 11 11 11 13 13 13 14 13 13 15 13 11 9 7 6 9 11 11 10 9 8 8 7 7 9 11 11 9 7 5
2 -0 3 8 9 9 13 17 15 14 13 11 4 3 10 16 16 23 28 15 2 6 10 9 13 16 8 -0 2 8 6 3 8 14 16 15 14 15 13 6 3 6 10 13 19 19 14 11 11 9 8 9 7 7 9 8 8 11 11 11 13 13 14 15 13 11 13 13 10 9 9 9 10 11 11 11 10 9 9 7 6 7 8 10 10 8 6
5 2 -0 4 8 9 11 13 12 12 12 12 7 4 8 17 19 21 23 16 6 3 4 6 9 12 9 2 3 6 0 -3 4 8 10 10 1 1 13 14 5 4 8 14 19 19 14 12 11 10 10 9 10 10 8 8 9 9 9 10 11 12 13 15 15 13 12 13 10 9 12 12 11 12 12 11 11 10 8 7 7 5 5 7 7 6 6
5 4 1 2 6 9 11 10 7 8 10 11 8 3 4 10 16 18 18 17 14 9 4 4 4 5 6 5 7 8 1 0 3 -0 8 18 4 -10 5 17 10 6 6 10 17 20 15 11 10 11 10 9 12 12 9 11 11 9 8 8 7 10 12 13 16 17 15 14 10 7 10 12 11 11 10 10 10 10 10 11 10 7 6 7 7 7 7
7 6 4 2 3 7 11 9 7 6 7 8 8 6 3 3 10 18 18 13 12 13 13 12 8 6 6 4 5 8 4 5 6 -1 10 30 21 0 4 12 11 11 8 5 10 17 19 16 11 11 11 8 9 11 9 9 10 10 11 8 7 13 16 14 16 17 17 17 13 7 6 9 11 9 6 6 8 9 9 10 10 9 10 10 11 10 10
9 8 6 4 1 4 9 10 8 7 7 7 8 8 7 4 5 12 16 13 11 10 12 16 16 13 14 11 8 8 6 7 9 4 6 16 12 2 6 10 12 14 11 7 8 10 16 18 13 12 12 7 5 8 8 6 5 7 8 5 7 18 23 20 20 21 18 16 13 8 6 7 10 9 5 5 6 7 7 8 9 10 10 9 10 10 11
9 9 8 6 2 2 8 11 10 8 7 7 7 7 8 8 5 6 10 12 12 9 8 10 11 11 14 15 16 16 11 9 10 8 6 7 4 2 7 10 13 16 12 10 12 10 10 14 15 14 14 10 5 4 5 4 3 5 7 4 4 11 16 16 21 26 25 19 12 9 10 10 9 10 10 10 9 8 7 8 8 7 5 5 7 9 10
7 10 11 9 4 1 4 8 11 11 8 7 8 7 6 8 7 7 8 10 10 11 11 10 9 9 11 12 15 17 16 14 13 7 3 7 8 7 8 10 13 17 16 13 14 11 7 8 10 11 14 17 15 12 10 8 5 5 9 6 3 4 7 9 13 17 22 24 21 14 10 8 6 5 6 7 9 11 12 11 9 7 7 9 11 11 10
4 7 11 12 8 3 -0 0 4 9 9 7 7 8 7 8 8 7 9 10 9 9 11 11 10 10 9 7 9 12 15 18 15 3 -3 6 12 9 9 10 9 12 17 19 19 15 9 6 7 8 8 12 16 16 15 13 9 7 7 6 3 2 3 6 10 11 14 20 23 21 16 10 6 4 2 2 5 8 10 10 10 13 14 14 13 13 14
4 4 7 13 13 8 2 -2 -5 -3 2 5 6 7 7 9 9 7 8 11 12 12 11 10 7 7 6 7 9 11 14 18 14 0 -6 5 12 7 5 7 6 6 12 17 17 15 11 9 9 8 7 8 11 13 14 14 13 11 9 6 4 2 1 3 6 10 13 16 19 23 21 15 10 7 4 1 -0 -1 0 4 9 14 14 11 11 14 16
8 5 3 8 14 14 9 4 -1 -5 -4 -1 3 6 7 7 8 8 8 8 9 11 13 12 9 8 7 7 11 15 16 16 13 5 -1 4 9 7 6 8 6 4 6 8 8 8 10 11 10 9 10 11 12 15 17 17 18 19 17 13 11 10 9 7 5 4 7 10 14 20 23 22 20 16 13 10 5 1 2 7 10 11 9 8 10 14 17
11 9 4 4 10 15 14 9 5 1 -2 -4 -2 2 4 5 7 8 10 10 8 8 10 12 13 13 12 10 10 13 16 17 15 10 4 5 7 8 8 10 8 5 4 3 2 3 6 10 12 11 11 11 10 11 13 12 14 18 19 19 17 14 12 10 8 6 7 11 15 18 19 21 22 21 21 21 17 11 10 11 10 9 7 7 11 15 18
12 11 9 5 5 11 16 14 9 5 2 -1 -1 -1 -0 4 8 8 8 10 10 8 7 8 9 11 14 15 11 7 6 9 11 9 6 9 13 14 15 14 11 8 6 5 4 4 4 6 8 8 7 8 8 9 10 9 10 12 14 17 19 16 12 12 14 15 16 17 19 19 17 15 16 16 15 15 14 12 11 9 7 7 7 8 10 15 17
15 12 12 9 5 5 12 17 15 10 5 3 2 0 -2 1 7 8 7 8 11 10 8 8 8 7 10 15 15 10 5 4 6 5 6 10 14 16 19 20 16 11 10 8 8 9 7 6 7 6 4 5 8 9 10 9 9 9 11 15 16 14 12 13 17 21 20 14 10 9 9 9 10 9 8 8 7 7 6 7 9 13 16 16 15 15 15
19 15 13 12 8 5 7 13 17 15 9 6 5 4 1 1 5 8 6 6 9 10 8 9 10 9 8 9 12 12 11 10 9 7 6 9 11 11 15 19 19 15 13 12 11 11 10 10 9 7 5 6 8 10 9 9 10 11 11 13 14 13 10 9 10 16 20 18 12 7 4 5 7 7 8 8 9 9 10 12 15 18 21 22 20 16 13
19 20 15 12 11 7 4 8 14 17 14 10 7 6 5 4 6 8 7 4 6 9 9 9 10 10 10 9 9 9 10 11 11 9 7 8 9 9 10 14 16 16 16 15 14 12 11 12 12 10 9 9 10 10 9 8 10 13 14 14 15 14 10 6 5 9 14 19 19 17 14 14 18 20 21 20 17 14 14 13 12 12 14 16 16 16 15
17 21 19 14 13 11 6 4 9 15 17 14 11 10 9 9 8 8 7 5 5 6 8 8 9 10 10 10 10 9 8 8 9 10 9 8 8 9 9 9 10 12 14 15 15 13 11 12 14 14 14 14 13 12 11 10 10 12 14 15 15 15 13 11 11 13 13 14 14 14 14 13 15 18 21 22 20 18 16 14 13 14 15 14 13 14 16
14 19 22 18 14 12 10 6 5 10 15 16 14 13 12 12 11 10 9 6 4 5 7 8 8 9 9 11 12 12 11 11 10 9 9 9 8 7 7 8 8 7 8 9 11 11 10 10 12 13 14 15 14 12 11 12 12 11 11 11 11 13 14 14 15 16 16 15 15 15 15 14 11 10 12 15 17 19 19 19 17 15 13 11 12 13 15
12 15 21 22 17 13 11 9 6 7 11 14 14 13 13 13 12 12 11 7 4 4 6 7 8 8 8 10 12 13 13 14 15 14 12 12 12 10 9 9 8 7 6 6 6 7 7 7 8 9 10 11 11 9 8 8 8 8 9 9 8 9 10 10 11 11 11 11 12 13 15 15 13 10 9 10 12 14 17 19 19 17 14 12 9 8 6
14 13 17 22 21 16 12 11 8 6 8 11 12 11 12 13 13 13 13 10 6 5 6 7 8 9 9 9 11 13 13 13 15 16 15 15 16 14 13 12 11 10 9 8 7 6 6 5 6 7 7 8 8 7 5 4 4 4 4 5 5 5 5 5 6 6 6 6 6 7 8 10 11 10 9 8 8 7 8 9 11 13 14 13 11 8 6
15 14 15 20 23 20 14 12 10 7 6 9 10 9 9 11 12 14 14 11 7 6 7 8 7 7 9 10 11 12 12 11 12 14 15 15 16 15 15 17 18 16 15 14 12 10 10 10 9 9 9 9 9 9 8 7 6 6 5 4 4 5 5 5 5 4 4 5 5 4 5 5 6 7 7 7 7 6 6 5 6 6 7 7 8 8 7
16 15 13 17 22 23 17 13 11 9 7 7 9 10 8 7 10 14 15 13 8 5 6 8 9 8 8 10 12 11 10 9 11 13 13 13 13 13 14 16 17 18 19 19 18 17 18 17 17 17 17 17 17 17 17 16 14 14 13 11 10 9 8 8 8 7 7 8 8 9 9 8 7 8 8 8 8 8 8 9 9 9 9 9 8 8 8
17 16 14 15 20 24 21 15 11 11 9 7 8 9 9 6 7 11 14 12 9 6 5 7 9 8 8 10 12 11 9 8 10 12 12 12 11 11 12 14 14 15 16 17 18 18 19 19 20 20 20 20 19 19 20 22 24 25 25 25 25 24 22 20 18 16 15 14 12 10 9 9 9 9 10 11 11 11 11 12 11 11 11 11 10 10 10
16 16 15 14 16 23 24 18 12 11 11 9 7 8 9 8 7 9 11 11 9 7 7 8 9 8 8 9 11 11 9 8 8 9 9 10 9 9 10 12 12 11 12 14 15 15 14 16 18 17 15 15 16 18 20 22 23 24 25 26 28 29 31 31 31 31 30 28 24 21 19 16 14 13 13 12 11 11 10 10 9 9 8 8 8 10 10
15 16 15 13 13 18 23 21 16 13 12 11 9 8 8 9 9 8 9 10 9 8 7 9 10 9 7 8 10 11 9 7 7 7 7 8 9 9 10 11 11 10 10 11 12 11 9 11 15 14 12 13 17 18 17 14 13 13 14 14 15 17 20 23 26 29 32 34 34 33 30 26 22 20 18 16 15 14 14 14 15 15 16 16 16 16 16
12 14 14 13 12 15 19 22 21 16 12 11 11 9 7 8 10 9 9 9 9 9 8 8 10 10 8 7 9 12 10 7 6 6 6 6 8 8 9 10 12 12 10 8 9 9 9 10 10 9 8 11 15 14 8 4 4 6 8 8 7 7 7 8 10 13 17 22 26 28 28 27 27 26 24 23 23 23 23 23 22 21 19 18 17 16 16
11 12 13 13 13 13 15 20 23 20 14 11 11 11 9 7 8 10 10 9 9 9 9 8 10 11 11 8 8 11 13 10 7 5 6 7 8 9 9 9 11 12 11 10 10 11 11 10 9 6 6 8 10 9 4 1 1 3 6 8 9 8 7 7 7 7 7 9 12 14 16 19 23 25 22 19 17 15 14 14 13 13 15 17 20 23 25
10 12 13 13 13 12 13 17 21 22 20 14 10 10 11 9 8 9 10 10 9 8 9 10 10 11 12 10 8 10 13 13 9 6 6 6 7 8 8 8 8 10 11 10 10 11 12 11 10 10 9 10 10 9 8 8 10 12 14 16 16 15 15 14 14 14 14 13 12 11 10 9 11 13 13 10 7 8 9 9 9 12 17 22 26 31 35
9 11 12 13 13 13 14 15 17 20 21 18 13 11 11 11 10 8 8 10 10 9 9 9 9 11 12 12 10 9 11 13 13 9 7 6 7 8 8 8 7 8 9 9 9 9 10 9 10 10 11 12 12 13 13 13 14 15 17 17 15 13 12 11 11 12 13 14 15 18 20 18 14 12 10 8 8 10 11 10 9 11 14 18 20 23 26
7 9 11 12 14 14 14 15 16 18 19 20 18 13 10 10 11 10 9 9 10 10 9 8 8 9 11 13 12 10 9 12 14 13 10 8 7 7 7 7 7 8 8 8 8 8 8 9 9 10 10 10 10 10 11 11 11 11 12 12 11 10 9 8 9 9 10 10 11 13 17 21 23 21 19 16 14 14 13 10 8 9 10 11 13 14 15
7 6 7 9 12 13 15 16 17 17 18 20 20 17 12 11 11 11 11 10 8 9 9 9 7 7 7 10 12 11 10 10 12 14 14 12 9 6 6 7 8 8 8 7 8 9 9 9 9 8 8 9 9 8 9 9 9 9 9 9 8 8 8 8 9 9 10 12 12 11 11 14 17 19 19 17 15 14 13 11 9 8 7 8 9 10 10
12 8 5 5 7 9 11 15 17 17 18 19 20 19 17 13 10 10 12 12 10 8 8 8 8 7 6 6 8 10 11 10 10 12 15 15 12 9 7 6 6 8 8 7 7 9 10 9 8 7 6 6 6 6 7 7 6 7 8 8 8 7 7 7 8 8 9 10 12 12 12 12 12 13 15 15 14 14 13 13 11 10 9 9 9 9 10
16 13 9 6 5 5 7 10 13 16 18 18 19 19 19 17 13 11 11 12 12 10 8 6 6 7 7 6 6 8 9 10 9 10 12 14 14 13 12 8 6 7 7 7 7 9 9 8 7 6 6 6 5 5 5 6 6 7 8 8 8 9 9 9 10 11 12 13 14 13 12 11 10 10 11 13 14 14 14 13 13 13 12 12 12 12 11
15 15 14 10 7 7 7 7 9 12 15 18 19 20 20 20 18 14 11 11 12 12 11 9 7 6 7 7 7 6 7 8 8 8 10 10 11 14 15 13 10 7 6 5 7 8 8 8 7 5 4 5 6 5 5 5 5 6 7 7 7 8 9 9 10 10 11 12 14 14 14 14 13 11 10 10 10 11 12 13 13 12 11 10 10 11 12
14 15 15 13 10 9 8 7 6 8 11 14 18 20 21 22 21 18 15 13 11 11 12 12 9 7 6 7 7 7 8 7 7 7 8 7 7 9 12 15 16 14 9 6 6 7 6 6 7 7 6 5 6 6 7 7 7 7 8 7 7 7 8 8 8 8 8 9 10 11 12 14 14 14 14 13 12 11 11 11 11 11 10 9 9 8 8
15 15 15 14 12 11 9 8 6 6 7 10 12 16 20 23 22 21 19 17 13 10 11 12 12 11 9 7 7 7 7 7 7 7 6 5 5 5 4 7 12 15 14 11 11 11 9 7 6 6 6 6 7 7 7 7 8 8 9 9 9 9 9 9 8 7 7 7 7 8 8 10 11 12 14 16 16 17 15 13 11 10 10 10 10 10 10
15 16 16 15 13 12 10 9 8 7 7 8 9 11 15 20 22 22 22 21 18 13 10 10 11 12 12 10 9 8 7 6 6 6 5 5 5 3 2 2 6 8 8 7 10 13 15 13 11 8 6 5 5 6 7 7 7 7 8 8 8 8 8 9 10 10 9 8 7 7 7 7 8 9 10 10 11 13 15 15 14 13 11 10 9 10 10
14 16 17 16 14 13 11 10 9 8 7 7 8 8 10 14 18 21 22 23 22 18 13 10 10 10 11 12 12 11 9 8 7 6 5 5 4 2 2 3 5 4 2 1 2 5 9 12 14 14 12 9 7 5 5 5 6 6 6 6 5 5 5 6 7 8 9 9 9 8 8 7 7 7 7 8 7 7 9 11 14 16 18 17 15 13 12
Height
5569 5566 5562 5559 5555 5551 5548 5545 5543 5541 5539 5537 5534 5532 5530 5528 5527 5526 5526 5525 5525 5525 5525 5526 5526 5527 5529 5531 5533 5534 5537 5540 5544 5547 5551 5556 5561 5567 5572 5578 5583 5588 5593 5597 5601 5605 5609 5614 5619 5623 5627 5631 5635 5640 5644 5648 5652 5656 5660 5664 5669 5674 5677 5680 5684 5689 5694 5697 5701 5704 5706 5708 5711 5714 5717 5721 5724 5728 5731 5732 5735 5737 5738 5740 5743 5745 5748
5571 5568 5565 5562 5558 5555 5552 5549 5547 5545 5543 5541 5539 5537 5535 5534 5532 5531 5530 5530 5530 5530 5530 5531 5531 5532 5533 5534 5536 5538 5541 5545 5548 5551 5555 5560 5565 5569 5575 5580 5585 5589 5594 5598 5602 5606 5610 5614 5618 5623 5627 5630 5634 5638 5642 5646 5650 5654 5659 5663 5668 5672 5674 5677 5681 5685 5688 5691 5694 5697 5699 5702 5706 5710 5714 5717 5721 5724 5726 5728 5731 5732 5734 5737 5739 5740 5744
5574 5571 5567 5564 5561 5558 5555 5553 5551 5548 5546 5545 5543 5541 5540 5538 5536 5535 5534 5534 5533 5533 5534 5534 5534 5535 5537 5538 5540 5543 5545 5548 5551 5555 5559 5564 5568 5572 5577 5582 5586 5591 5595 5599 5603 5606 5610 5615 5619 5623 5626 5630 5634 5637 5641 5644 5649 5654 5659 5663 5667 5670 5673 5676 5679 5682 5685 5687 5689 5692 5695 5698 5702 5707 5711 5714 5717 5719 5722 5725 5726 5727 5730 5734 5735 5737 5741
5576 5573 5570 5566 5563 5560 5558 5556 5554 5552 5550 5548 5546 5545 5544 5542 5541 5539 5538 5537 5537 5536 5536 5536 5537 5538 5541 5543 5545 5547 5549 5552 5555 5559 5563 5567 5571 5575 5579 5583 5588 5592 5596 5600 5603 5607 5611 5615 5619 5623 5626 5629 5633 5636 5640 5644 5649 5653 5657 5660 5664 5667 5671 5675 5678 5682 5686 5689 5693 5695 5698 5699 5702 5706 5709 5712 5715 5718 5720 5721 5722 5725 5728 5731 5732 5735 5738
5577 5575 5572 5569 5566 5564 5562 5559 5557 5555 5553 5552 5550 5548 5547 5546 5545 5543 5542 5541 5541 5540 5540 5540 5541 5542 5544 5547 5549 5551 5554 5557 5560 5564 5567 5571 5574 5577 5581 5585 5589 5593 5597 5601 5604 5608 5612 5616 5619 5623 5626 5629 5632 5636 5639 5643 5647 5651 5654 5657 5661 5664 5668 5672 5675 5679 5683 5687 5690 5694 5696 5698 5701 5705 5709 5711 5714 5716 5717 5718 5720 5723 5725 5727 5730 5733 5735
5579 5577 5574 5572 5570 5567 5566 5563 5560 5558 5556 5554 5553 5551 5550 5548 5548 5547 5546 5545 5545 5545 5545 5545 5546 5547 5549 5550 5553 5556 5558 5561 5564 5567 5570 5573 5577 5580 5584 5587 5591 5595 5598 5602 5605 5608 5612 5616 5619 5622 5625 5628 5632 5635 5639 5642 5646 5649 5652 5655 5658 5662 5666 5670 5672 5676 5679 5683 5686 5689 5692 5695 5698 5702 5705 5708 5711 5712 5714 5716 5719 5722 5723 5725 5729 5731 5733
5580 5579 5577 5574 5573 5571 5569 5567 5564 5561 5559 5557 5555 5554 5552 5551 5551 5550 5550 5549 5549 5549 5549 5550 5550 5551 5553 5555 5557 5559 5562 5565 5568 5571 5574 5577 5580 5583 5586 5589 5592 5595 5599 5602 5605 5609 5612 5616 5620 5623 5625 5628 5632 5635 5638 5641 5644 5647 5650 5653 5656 5660 5664 5667 5670 5673 5676 5680 5683 5686 5689 5692 5694 5698 5701 5704 5707 5709 5712 5715 5717 5719 5721 5724 5726 5728 5730
5582 5580 5578 5577 5575 5573 5571 5569 5567 5565 5563 5561 5559 5557 5556 5555 5554 5554 5553 5553 5553 5553 5553 5554 5554 5556 5557 5559 5561 5563 5566 5569 5572 5575 5577 5580 5583 5586 5588 5590 5593 5596 5599 5602 5606 5609 5613 5617 5621 5623 5626 5629 5632 5635 5637 5640 5643 5646 5649 5651 5654 5658 5662 5665 5667 5670 5673 5676 5680 5683 5686 5689 5691 5694 5697 5700 5703 5706 5708 5711 5713 5715 5718 5721 5723 5725 5727
5583 5582 5580 5579 5577 5575 5573 5572 5570 5568 5566 5564 5562 5561 5559 5559 5558 5557 5557 5557 5557 5557 5557 5558 5558 5559 5561 5563 5565 5567 5570 5572 5575 5577 5579 5583 5587 5588 5589 5592 5594 5597 5600 5603 5606 5609 5613 5617 5620 5623 5626 5629 5632 5634 5637 5640 5643 5645 5648 5650 5653 5657 5660 5663 5665 5667 5670 5674 5677 5680 5683 5685 5687 5690 5693 5697 5700 5702 5705 5707 5710 5712 5715 5717 5719 5721 5724
5585 5584 5582 5581 5579 5577 5576 5574 5573 5571 5569 5568 5566 5565 5563 5562 5561 5560 5560 5560 5560 5561 5561 5561 5562 5564 5565 5567 5569 5571 5573 5576 5578 5580 5582 5585 5588 5589 5590 5593 5596 5597 5600 5602 5605 5609 5612 5615 5618 5621 5623 5626 5629 5632 5635 5638 5641 5644 5647 5650 5652 5655 5658 5662 5664 5666 5669 5672 5675 5678 5680 5681 5683 5687 5691 5694 5697 5700 5703 5705 5708 5710 5712 5714 5716 5719 5722
5587 5586 5584 5582 5580 5579 5577 5576 5575 5573 5571 5570 5569 5567 5566 5564 5564 5563 5563 5563 5563 5564 5564 5565 5566 5567 5569 5571 5572 5574 5576 5579 5580 5582 5584 5586 5588 5590 5592 5594 5596 5598 5600 5602 5605 5608 5611 5613 5616 5619 5621 5623 5626 5630 5633 5636 5639 5642 5645 5648 5650 5653 5656 5659 5662 5664 5667 5670 5673 5675 5676 5677 5681 5685 5689 5692 5694 5697 5700 5702 5705 5707 5709 5711 5714 5717 5718
5588 5587 5585 5583 5582 5580 5579 5578 5577 5575 5573 5572 5570 5570 5569 5567 5566 5566 5566 5566 5566 5566 5567 5568 5568 5570 5572 5574 5575 5576 5578 5581 5582 5584 5586 5588 5590 5591 5593 5595 5597 5599 5600 5602 5605 5607 5610 5612 5615 5617 5620 5622 5625 5628 5631 5634 5637 5640 5643 5645 5648 5651 5655 5657 5660 5662 5665 5668 5670 5671 5672 5675 5680 5684 5686 5689 5692 5695 5697 5699 5702 5704 5707 5709 5711 5712 5714
5589 5587 5586 5584 5583 5582 5580 5579 5578 5577 5575 5574 5573 5572 5571 5570 5568 5568 5568 5569 5569 5569 5570 5571 5572 5572 5574 5576 5577 5578 5580 5582 5584 5586 5587 5589 5591 5593 5594 5596 5598 5600 5601 5603 5605 5607 5609 5612 5614 5617 5620 5622 5624 5627 5630 5633 5635 5638 5641 5644 5647 5650 5653 5656 5658 5660 5662 5665 5666 5667 5669 5674 5678 5681 5683 5686 5689 5692 5694 5696 5699 5701 5704 5706 5707 5708 5710
5590 5588 5587 5586 5585 5583 5582 5581 5580 5578 5577 5576 5574 5573 5573 5572 5571 5570 5570 5571 5571 5572 5573 5574 5575 5576 5577 5578 5580 5581 5582 5584 5586 5587 5589 5591 5592 5594 5595 5597 5599 5601 5603 5605 5607 5608 5610 5612 5614 5616 5619 5621 5623 5626 5629 5631 5634 5637 5640 5643 5646 5649 5651 5654 5656 5659 5660 5662 5664 5666 5669 5672 5675 5678 5681 5684 5686 5689 5691 5693 5696 5698 5700 5702 5704 5705 5706
5590 5589 5588 5587 5586 5585 5584 5582 5581 5580 5579 5578 5576 5575 5574 5573 5573 5572 5572 5573 5574 5575 5575 5576 5577 5579 5580 5581 5582 5583 5585 5586 5588 5589 5590 5592 5593 5595 5596 5598 5600 5601 5604 5605 5607 5609 5611 5612 5614 5616 5618 5620 5623 5626 5628 5631 5633 5636 5639 5642 5644 5646 5649 5652 5654 5656 5659 5661 5663 5664 5666 5669 5672 5676 5679 5681 5683 5686 5687 5690 5692 5694 5696 5698 5700 5701 5703
5591 5590 5589 5588 5588 5586 5585 5584 5582 5581 5580 5580 5579 5577 5576 5575 5575 5574 5574 5575 5576 5577 5578 5579 5580 5581 5582 5583 5585 5586 5587 5588 5589 5590 5591 5593 5594 5596 5598 5599 5601 5602 5604 5606 5607 5609 5611 5613 5615 5617 5619 5621 5623 5626 5628 5630 5633 5635 5638 5640 5642 5644 5647 5649 5651 5653 5656 5659 5660 5661 5664 5667 5671 5674 5676 5678 5681 5683 5684 5686 5688 5690 5692 5694 5696 5698 5699
5590 5590 5590 5589 5589 5588 5587 5586 5584 5583 5582 5581 5581 5580 5578 5577 5577 5577 5577 5577 5578 5579 5580 5581 5582 5583 5584 5585 5586 5587 5588 5589 5590 5591 5592 5593 5595 5598 5599 5600 5602 5603 5605 5606 5607 5609 5611 5613 5615 5617 5619 5621 5623 5625 5628 5630 5632 5634 5636 5638 5640 5642 5644 5646 5648 5650 5653 5655 5657 5659 5662 5665 5668 5671 5673 5675 5677 5679 5680 5682 5684 5687 5689 5691 5692 5694 5695
5590 5590 5590 5590 5589 5589 5588 5587 5586 5585 5584 5583 5582 5582 5581 5580 5579 5579 5579 5579 5580 5581 5581 5582 5583 5584 5585 5586 5587 5588 5589 5590 5591 5592 5593 5593 5596 5599 5600 5601 5603 5604 5605 5607 5608 5609 5611 5613 5615 5617 5619 5621 5623 5625 5627 5629 5631 5633 5635 5637 5638 5640 5642 5644 5646 5648 5650 5652 5654 5657 5659 5662 5665 5667 5670 5672 5674 5675 5677 5679 5681 5684 5687 5688 5689 5691 5692
5589 5590 5590 5590 5590 5589 5589 5588 5588 5587 5586 5585 5584 5583 5583 5582 5582 5581 5581 5581 5582 5582 5583 5583 5584 5585 5586 5587 5588 5589 5590 5591 5591 5593 5594 5594 5596 5599 5601 5601 5603 5604 5605 5607 5608 5610 5611 5613 5615 5617 5619 5621 5623 5625 5627 5628 5630 5632 5634 5636 5637 5638 5639 5641 5643 5645 5647 5649 5651 5653 5655 5658 5662 5665 5667 5669 5670 5672 5675 5677 5679 5682 5684 5685 5686 5687 5688
5588 5589 5589 5589 5590 5589 5589 5589 5589 5588 5587 5587 5586 5585 5584 5584 5583 5583 5583 5583 5583 5583 5584 5584 5585 5586 5587 5587 5588 5589 5590 5591 5592 5593 5594 5595 5597 5599 5600 5601 5602 5604 5605 5607 5608 5610 5611 5613 5615 5617 5618 5620 5622 5624 5626 5627 5629 5630 5632 5634 5635 5636 5637 5638 5640 5642 5644 5646 5647 5649 5651 5655 5659 5662 5664 5665 5667 5670 5672 5675 5676 5678 5679 5681 5682 5683 5684
5587 5588 5588 5589 5589 5589 5589 5589 5589 5589 5588 5588 5587 5587 5586 5585 5585 5585 5585 5585 5585 5585 5585 5585 5586 5587 5587 5588 5588 5589 5590 5591 5592 5593 5594 5595 5597 5598 5600 5600 5602 5603 5605 5606 5608 5609 5611 5612 5614 5616 5617 5619 5621 5622 5624 5626 5628 5629 5630 5632 5633 5634 5634 5636 5637 5639 5641 5642 5644 5647 5650 5654 5657 5659 5661 5663 5665 5667 5669 5671 5673 5674 5675 5676 5677 5678 5679
5586 5587 5587 5588 5589 5589 5589 5589 5589 5589 5589 5588 5588 5588 5587 5587 5586 5586 5586 5586 5586 5586 5586 5586 5587 5587 5588 5588 5589 5589 5590 5591 5592 5593 5594 5595 5597 5598 5599 5600 5601 5603 5604 5605 5607 5608 5610 5611 5613 5614 5616 5617 5619 5621 5622 5624 5625 5627 5628 5629 5630 5631 5633 5634 5635 5637 5639 5641 5643 5645 5648 5651 5653 5655 5658 5660 5661 5664 5666 5668 5669 5670 5670 5671 5672 5674 5675
5585 5585 5586 5587 5588 5588 5589 5589 5589 5589 5589 5589 5588 5588 5588 5588 5587 5587 5587 5587 5587 5587 5587 5588 5588 5588 5589 5589 5589 5590 5590 5591 5592 5593 5594 5595 5597 5598 5600 5601 5602 5603 5604 5605 5606 5607 5609 5610 5612 5613 5614 5616 5617 5618 5620 5621 5623 5624 5625 5626 5628 5629 5630 5632 5633 5635 5636 5638 5640 5642 5645 5647 5650 5652 5654 5656 5658 5660 5662 5663 5664 5665 5666 5666 5667 5669 5670
5584 5584 5584 5585 5586 5587 5588 5588 5589 5589 5589 5589 5589 5588 5588 5588 5588 5588 5587 5587 5587 5588 5588 5588 5589 5589 5589 5590 5590 5590 5591 5591 5593 5594 5595 5596 5597 5598 5600 5601 5602 5603 5604 5605 5606 5607 5608 5609 5610 5612 5613 5614 5615 5617 5618 5619 5620 5621 5622 5624 5625 5626 5628 5629 5631 5632 5634 5635 5637 5639 5641 5644 5646 5648 5650 5652 5654 5655 5657 5658 5659 5660 5661 5662 5663 5664 5665
5582 5582 5583 5583 5584 5585 5586 5587 5587 5588 5588 5588 5589 5589 5588 5588 5588 5588 5588 5588 5588 5588 5588 5589 5589 5590 5590 5590 5590 5591 5591 5592 5593 5594 5595 5596 5597 5598 5599 5601 5601 5602 5603 5605 5606 5607 5608 5609 5610 5611 5612 5613 5614 5615 5616 5617 5618 5619 5620 5621 5623 5624 5625 5627 5628 5630 5631 5633 5635 5636 5638 5640 5642 5644 5646 5648 5649 5651 5652 5654 5655 5656 5657 5658 5659 5660 5661
5580 5580 5581 5582 5582 5583 5584 5585 5586 5586 5587 5587 5588 5589 5589 5589 5589 5589 5588 5588 5588 5588 5588 5589 5589 5589 5590 5590 5590 5591 5591 5592 5593 5594 5595 5596 5597 5597 5599 5600 5601 5602 5603 5604 5605 5606 5607 5608 5608 5609 5610 5611 5612 5613 5614 5615 5616 5617 5618 5619 5620 5622 5623 5624 5626 5627 5628 5630 5631 5633 5634 5635 5637 5639 5641 5643 5645 5647 5648 5649 5651 5652 5653 5654 5655 5656 5656
5578 5578 5579 5580 5580 5581 5582 5583 5584 5584 5585 5586 5587 5588 5589 5589 5589 5588 5588 5588 5588 5588 5588 5588 5589 5589 5589 5590 5590 5591 5592 5592 5593 5594 5595 5596 5596 5597 5598 5598 5599 5600 5601 5602 5604 5605 5606 5606 5607 5608 5609 5610 5611 5611 5612 5613 5614 5615 5615 5616 5618 5619 5620 5621 5623 5624 5625 5627 5628 5629 5631 5632 5634 5636 5638 5640 5641 5643 5644 5646 5647 5648 5649 5650 5651 5652 5653
5575 5576 5577 5577 5578 5579 5580 5581 5581 5582 5583 5584 5585 5586 5588 5588 5588 5588 5588 5588 5588 5588 5588 5588 5588 5589 5589 5590 5590 5591 5591 5592 5593 5594 5594 5595 5596 5596 5596 5597 5598 5599 5600 5601 5602 5603 5604 5605 5606 5606 5607 5608 5609 5610 5611 5611 5612 5613 5613 5614 5615 5617 5618 5619 5620 5621 5622 5624 5625 5627 5628 5630 5632 5633 5635 5636 5638 5639 5641 5642 5643 5644 5645 5646 5647 5649 5649
5573 5573 5574 5575 5576 5577 5578 5579 5579 5580 5581 5582 5583 5585 5586 5587 5587 5587 5587 5587 5587 5587 5587 5588 5588 5588 5589 5589 5589 5590 5591 5591 5592 5593 5594 5594 5595 5595 5596 5596 5597 5598 5599 5600 5601 5602 5602 5603 5604 5605 5605 5606 5607 5608 5609 5610 5610 5611 5612 5613 5614 5615 5616 5617 5618 5619 5620 5621 5622 5624 5625 5627 5628 5630 5631 5633 5634 5635 5637 5638 5639 5640 5642 5643 5644 5645 5646
5570 5571 5572 5573 5574 5575 5576 5577 5577 5578 5579 5580 5581 5583 5584 5585 5585 5586 5586 5586 5586 5587 5587 5587 5587 5588 5588 5588 5589 5589 5590 5590 5591 5592 5593 5593 5594 5594 5595 5596 5596 5597 5598 5598 5599 5600 5601 5601 5602 5603 5604 5605 5606 5607 5607 5608 5609 5610 5611 5611 5612 5613 5614 5615 5616 5617 5618 5619 5620 5621 5623 5624 5625 5626 5628 5629 5630 5632 5633 5635 5636 5637 5638 5639 5640 5641 5643
5568 5569 5569 5570 5571 5572 5573 5574 5575 5575 5576 5578 5579 5580 5582 5583 5583 5584 5585 5585 5585 5586 5586 5586 5587 5587 5587 5588 5588 5588 5589 5589 5590 5590 5591 5592 5593 5593 5594 5595 5595 5596 5597 5597 5598 5599 5599 5600 5601 5602 5603 5604 5604 5605 5606 5607 5607 5608 5609 5610 5611 5612 5613 5614 5614 5615 5616 5617 5618 5619 5621 5622 5623 5624 5625 5626 5628 5629 5630 5631 5632 5634 5635 5636 5637 5638 5640
5566 5567 5567 5568 5569 5570 5571 5572 5573 5573 5574 5575 5577 5578 5580 5581 5581 5582 5583 5584 5584 5585 5585 5585 5586 5586 5586 5587 5587 5587 5587 5588 5589 5589 5590 5590 5591 5592 5593 5593 5594 5595 5596 5596 5597 5598 5598 5599 5600 5600 5601 5602 5603 5604 5605 5606 5606 5607 5608 5609 5609 5610 5611 5612 5613 5613 5614 5615 5617 5618 5619 5620 5621 5622 5623 5624 5625 5626 5627 5628 5629 5630 5631 5633 5634 5636 5637
5564 5564 5565 5565 5566 5567 5569 5570 5570 5571 5572 5573 5574 5576 5577 5578 5579 5580 5581 5582 5583 5583 5584 5584 5584 5585 5585 5585 5586 5586 5586 5587 5587 5588 5588 5589 5590 5590 5591 5592 5592 5593 5594 5595 5596 5596 5597 5598 5598 5599 5600 5601 5602 5603 5603 5604 5605 5606 5606 5607 5608 5609 5610 5610 5611 5612 5613 5614 5615 5616 5617 5618 5619 5619 5620 5621 5622 5623 5624 5625 5626 5627 5629 5630 5631 5633 5634
5562 5562 5562 5563 5564 5565 5566 5567 5568 5569 5570 5571 5572 5574 5575 5576 5577 5578 5579 5581 5581 5582 5582 5583 5583 5583 5584 5584 5584 5585 5585 5585 5586 5586 5587 5587 5588 5589 5589 5590 5591 5592 5593 5593 5594 5595 5595 5596 5597 5597 5598 5599 5600 5601 5601 5602 5603 5604 5604 5605 5606 5607 5608 5608 5609 5610 5611 5612 5613 5614 5615 5616 5616 5617 5618 5619 5620 5621 5622 5622 5623 5625 5626 5627 5628 5630 5631
5559 5560 5560 5561 5561 5562 5563 5565 5566 5566 5568 5569 5570 5572 5573 5574 5575 5576 5578 5579 5580 5581 5581 5581 5582 5582 5582 5583 5583 5583 5584 5584 5585 5585 5585 5586 5587 5587 5588 5588 5589 5590 5591 5591 5592 5593 5594 5594 5595 5596 5596 5597 5598 5598 5599 5600 5600 5601 5601 5602 5603 5604 5604 5605 5606 5606 5608 5609 5610 5611 5612 5613 5613 5614 5615 5616 5617 5618 5619 5620 5621 5622 5623 5624 5625 5626 5627
5557 5557 5558 5558 5559 5560 5561 5562 5563 5564 5565 5567 5568 5570 5571 5572 5573 5574 5576 5577 5578 5579 5580 5580 5580 5581 5581 5581 5582 5582 5583 5583 5584 5584 5585 5585 5586 5586 5587 5587 5588 5588 5589 5590 5590 5591 5592 5592 5593 5594 5594 5595 5595 5596 5596 5597 5597 5598 5598 5599 5600 5600 5600 5601 5602 5603 5604 5606 5607 5608 5608 5609 5610 5611 5612 5613 5614 5615 5616 5617 5618 5619 5620 5621 5622 5623 5624
5555 5555 5556 5556 5557 5557 5558 5559 5560 5562 5563 5565 5566 5567 5568 5569 5571 5572 5574 5575 5576 5577 5578 5578 5578 5579 5579 5580 5580 5581 5581 5582 5583 5583 5584 5584 5585 5585 5586 5586 5587 5587 5588 5588 5589 5590 5590 5591 5591 5592 5592 5593 5593 5594 5594 5595 5595 5595 5596 5596 5597 5597 5597 5598 5598 5599 5600 5602 5603 5603 5604 5605 5606 5607 5609 5610 5611 5612 5613 5614 5615 5616 5617 5618 5619 5620 5621
5553 5553 5553 5554 5554 5555 5555 5556 5558 5559 5560 5562 5564 5565 5566 5567 5569 5570 5572 5573 5574 5575 5576 5576 5577 5577 5578 5578 5579 5579 5580 5581 5582 5582 5583 5583 5584 5584 5585 5586 5586 5587 5587 5588 5588 5589 5589 5590 5590 5591 5591 5591 5592 5592 5593 5593 5593 5594 5594 5594 5594 5595 5595 5595 5595 5595 5596 5597 5598 5599 5600 5601 5603 5604 5606 5607 5608 5609 5610 5611 5612 5612 5613 5614 5615 5616 5617
5551 5551 5551 5552 5552 5552 5553 5554 5555 5556 5558 5559 5561 5562 5564 5565 5566 5568 5570 5571 5572 5573 5574 5574 5575 5576 5576 5577 5577 5578 5579 5580 5581 5581 5582 5582 5583 5584 5584 5585 5586 5586 5587 5587 5588 5588 5589 5589 5590 5590 5590 5591 5591 5591 5592 5592 5593 5593 5593 5593 5593 5593 5593 5593 5593 5593 5594 5594 5595 5595 5597 5598 5599 5601 5602 5603 5604 5605 5606 5607 5608 5609 5610 5611 5612 5612 5613
5549 5549 5549 5549 5550 5550 5551 5551 5552 5554 5555 5557 5558 5560 5561 5562 5564 5565 5567 5569 5570 5571 5571 5572 5573 5574 5575 5575 5576 5577 5578 5578 5579 5580 5581 5582 5582 5583 5584 5584 5585 5586 5586 5587 5587 5588 5588 5589 5589 5589 5590 5590 5590 5591 5591 5592 5592 5592 5593 5593 5593 5593 5593 5593 5593 5593 5593 5593 5593 5593 5594 5595 5596 5597 5599 5600 5601 5602 5603 5604 5605 5606 5607 5607 5608 5608 5609
5547 5547 5547 5547 5547 5548 5548 5549 5550 5551 5552 5554 5555 5557 5558 5560 5561 5563 5564 5566 5567 5568 5569 5570 5572 5573 5573 5574 5575 5576 5576 5577 5578 5579 5580 5581 5582 5582 5583 5583 5584 5585 5585 5586 5586 5587 5587 5588 5588 5589 5589 5589 5590 5590 5591 5591 5592 5592 5592 5592 5592 5592 5592 5592 5592 5592 5592 5592 5593 5593 5593 5594 5594 5595 5596 5597 5598 5600 5601 5602 5603 5604 5604 5604 5605 5605 5605
5545 5545 5545 5545 5545 5546 5546 5547 5548 5548 5549 5551 5552 5554 5555 5557 5558 5560 5561 5563 5564 5566 5568 5569 5570 5571 5572 5573 5574 5575 5575 5576 5577 5578 5579 5580 5581 5581 5582 5583 5583 5584 5584 5585 5585 5586 5586 5587 5587 5588 5588 5589 5589 5590 5590 5590 5591 5591 5591 5591 5591 5591 5591 5591 5591 5592 5592 5592 5592 5592 5592 5593 5594 5595 5596 5596 5597 5598 5599 5600 5601 5602 5602 5602 5602 5602 5602
5543 5543 5543 5543 5543 5543 5544 5544 5545 5546 5547 5548 5549 5551 5552 5554 5555 5557 5559 5560 5562 5564 5566 5567 5568 5569 5570 5571 5572 5573 5574 5575 5576 5577 5578 5579 5580 5580 5581 5582 5582 5583 5583 5584 5584 5585 5585 5586 5587 5587 5588 5588 5588 5589 5589 5589 5590 5590 5590 5590 5590 5590 5591 5591 5591 5591 5591 5591 5591 5591 5591 5592 5593 5593 5594 5595 5596 5597 5598 5599 5599 5600 5600 5600 5600 5600 5601
5540 5541 5541 5541 5541 5541 5541 5542 5542 5543 5544 5545 5546 5547 5549 5551 5552 5554 5556 5558 5560 5562 5563 5564 5566 5567 5568 5569 5570 5571 5572 5573 5574 5575 5576 5577 5578 5579 5580 5580 5581 5582 5582 5583 5583 5584 5584 5585 5586 5586 5587 5587 5588 5588 5588 5589 5589 5589 5589 5589 5590 5590 5590 5590 5590 5590 5591 5591 5591 5591 5591 5591 5591 5592 5593 5594 5595 5596 5597 5597 5598 5599 5599 5599 5600 5600 5600
5538 5538 5539 5539 5539 5539 5539 5539 5540 5540 5541 5542 5543 5544 5546 5548 5550 5552 5553 5555 5557 5559 5560 5562 5563 5564 5566 5567 5568 5569 5570 5571 5572 5573 5574 5575 5576 5577 5578 5579 5580 5581 5581 5581 5582 5583 5584 5585 5585 5586 5586 5586 5587 5587 5588 5588 5588 5588 5589 5589 5589 5589 5589 5589 5590 5590 5590 5590 5590 5590 5590 5590 5591 5591 5592 5593 5594 5594 5595 5596 5597 5598 5598 5599 5599 5600 5601
5535 5536 5536 5537 5537 5537 5537 5537 5538 5538 5538 5539 5540 5541 5543 5545 5546 5548 5550 5552 5554 5555 5557 5558 5560 5561 5563 5564 5565 5566 5567 5569 5569 5570 5572 5573 5574 5575 5576 5577 5578 5579 5579 5579 5580 5582 5583 5583 5584 5584 5585 5585 5586 5586 5587 5587 5587 5587 5588 5588 5588 5588 5589 5589 5589 5589 5590 5590 5590 5590 5590 5590 5591 5591 5591 5592 5593 5593 5594 5595 5596 5597 5597 5598 5599 5599 5600
5532 5533 5533 5534 5534 5534 5535 5535 5535 5536 5536 5537 5537 5538 5539 5541 5543 5545 5547 5549 5550 5552 5553 5555 5556 5558 5560 5561 5563 5564 5565 5566 5567 5568 5569 5570 5571 5572 5574 5575 5576 5577 5577 5577 5578 5580 5581 5582 5582 5583 5583 5584 5584 5585 5585 5586 5586 5587 5587 5587 5587 5588 5588 5588 5588 5589 5589 5589 5589 5590 5590 5590 5590 5590 5591 5591 5592 5593 5593 5594 5595 5595 5596 5597 5598 5598 5599
5529 5530 5530 5531 5531 5532 5532 5533 5533 5533 5533 5534 5535 5535 5536 5538 5540 5541 5543 5545 5547 5549 5550 5551 5553 5554 5556 5558 5560 5561 5562 5563 5565 5566 5567 5568 5569 5570 5571 5572 5573 5574 5574 5575 5577 5578 5580 5580 5580 5581 5582 5582 5583 5583 5584 5584 5585 5585 5586 5586 5587 5587 5587 5587 5587 5588 5588 5588 5589 5589 5589 5589 5590 5590 5590 5591 5591 5592 5592 5593 5594 5594 5595 5596 5596 5597 5598
5527 5527 5527 5528 5528 5529 5529 5530 5530 5531 5531 5532 5532 5533 5534 5535 5536 5538 5539 5541 5543 5545 5546 5547 5549 5551 5553 5554 5556 5558 5559 5560 5562 5563 5564 5566 5567 5568 5569 5570 5570 5571 5571 5573 5575 5576 5577 5578 5578 5579 5580 5581 5581 5582 5582 5583 5583 5584 5585 5585 5585 5586 5586 5586 5587 5587 5587 5587 5588 5588 5588 5589 5589 5589 5590 5590 5590 5591 5592 5592 5593 5593 5594 5595 5595 5596 5597
5524 5524 5524 5525 5525 5526 5527 5527 5528 5528 5529 5529 5529 5530 5531 5532 5533 5534 5536 5538 5540 5541 5542 5544 5545 5547 5549 5550 5552 5554 5556 5557 5558 5560 5562 5563 5564 5565 5567 5567 5567 5568 5569 5570 5572 5574 5574 5575 5576 5577 5578 5578 5579 5580 5581 5581 5582 5583 5583 5584 5584 5584 5585 5585 5586 5586 5586 5586 5587 5587 5587 5588 5588 5589 5589 5589 5590 5590 5590 5591 5591 5592 5593 5593 5594 5595 5596
5521 5521 5521 5522 5522 5523 5523 5524 5525 5526 5526 5526 5527 5527 5528 5529 5530 5531 5532 5534 5536 5538 5539 5540 5541 5543 5545 5547 5548 5550 5551 5553 5555 5557 5558 5560 5561 5563 5564 5564 5564 5565 5566 5568 5569 5570 5571 5572 5573 5574 5575 5576 5577 5578 5578 5579 5580 5580 5581 5582 5582 5583 5583 5584 5584 5584 5585 5585 5586 5586 5586 5587 5587 5587 5588 5588 5588 5588 5589 5589 5590 5590 5591 5592 5592 5593 5594
5518 5518 5518 5519 5519 5520 5520 5521 5522 5523 5523 5524 5524 5525 5525 5526 5527 5528 5529 5530 5532 5533 5535 5536 5538 5539 5541 5542 5544 5546 5547 5549 5551 5553 5554 5556 5557 5559 5560 5561 5561 5562 5563 5564 5565 5567 5568 5569 5570 5571 5572 5573 5574 5575 5576 5576 5577 5578 5578 5579 5580 5581 5581 5582 5582 5582 5583 5583 5584 5584 5585 5585 5585 5586 5586 5586 5586 5587 5587 5588 5588 5589 5589 5590 5590 5591 5592